Weather History for Enid, OK

Change the Weather History Date:

Tuesday, May 8, 2012

  Actual Average Record
Temperature  
Mean Temperature 64 °F -  
Max Temperature 77 °F 76 °F 100 °F (2011)
Min Temperature 51 °F 55 °F 48 °F (1999)
Degree Days  
Heating Degree Days 1    
Growing Degree Days 14 (Base 50)    
Moisture  
Dew Point 46 °F    
Average Humidity 66    
Maximum Humidity 88    
Minimum Humidity 29    
Precipitation  
Precipitation 0.00 in - - ()
Sea Level Pressure  
Sea Level Pressure 30.08 in    
Wind  
Wind Speed 9 mph (North)    
Max Wind Speed 15 mph    
Max Gust Speed 17 mph    
Visibility 10 miles    
Events      
Averages and records for this station are not official NWS values.
T = Trace of Precipitation, MM = Missing Value Source: NWS Daily Summary

Daily Weather History Graph

Daily Weather History Graph

Search for Another Location

Airport:

Trip Planner

Search our weather history database for the weather conditions in past years. The results will help you decide how hot, cold, wet, or windy it might be!

Date:

Astronomy

May. 08, 2012 Rise Set
Actual Time 6:30 AM CDT 8:25 PM CDT
Civil Twilight 6:02 AM CDT 8:53 PM CDT
Nautical Twilight 5:27 AM CDT 9:28 PM CDT
Astronomical Twilight 4:51 AM CDT 10:04 PM CDT
Moon 11:35 PM CDT (5/8) 8:42 AM CDT (5/8)
Length of Visible Light 14h 51m
Length of Day
13h 55m
Waning Gibbous, 90% of the Moon is Illuminated
May 8
Waning Gibbous
May 12
Last Quarter
May 20
New
May 28
First Quarter
Jun 4
Full

Hourly Weather History & Observations

Time (CDT) Temp. Dew Point Humidity Pressure Visibility Wind Dir Wind Speed Gust Speed Precip Events Conditions
12:15 AM 59.0 °F 44.6 °F 59% 30.06 in 10.0 mi North 13.8 mph - N/A   Mostly Cloudy
12:35 AM 55.4 °F 44.6 °F 67% 30.06 in 10.0 mi North 13.8 mph 17.3 mph N/A   Scattered Clouds
12:55 AM 55.4 °F 44.6 °F 67% 30.07 in 10.0 mi North 11.5 mph - N/A   Clear
1:15 AM 53.6 °F 44.6 °F 72% 30.08 in 10.0 mi North 10.4 mph - N/A   Clear
1:35 AM 53.6 °F 44.6 °F 72% 30.07 in 10.0 mi North 10.4 mph - N/A   Mostly Cloudy
1:55 AM 55.4 °F 44.6 °F 67% 30.08 in 10.0 mi North 9.2 mph - N/A   Overcast
2:15 AM 55.4 °F 46.4 °F 72% 30.09 in 10.0 mi NNE 6.9 mph - N/A   Overcast
2:35 AM 55.4 °F 46.4 °F 72% 30.10 in 10.0 mi North 8.1 mph - N/A   Overcast
2:55 AM 55.4 °F 46.4 °F 72% 30.10 in 10.0 mi North 9.2 mph - N/A   Overcast
3:15 AM 55.4 °F 46.4 °F 72% 30.10 in 10.0 mi North 9.2 mph - N/A   Overcast
3:35 AM 55.4 °F 46.4 °F 72% 30.10 in 10.0 mi North 9.2 mph - N/A   Mostly Cloudy
4:15 AM 55.4 °F 46.4 °F 72% 30.09 in 10.0 mi North 9.2 mph - N/A   Scattered Clouds
4:35 AM 55.4 °F 46.4 °F 72% 30.10 in 10.0 mi North 8.1 mph - N/A   Scattered Clouds
4:55 AM 53.6 °F 46.4 °F 77% 30.09 in 10.0 mi North 10.4 mph - N/A   Scattered Clouds
5:15 AM 53.6 °F 44.6 °F 72% 30.08 in 10.0 mi North 11.5 mph - N/A   Scattered Clouds
5:35 AM 53.6 °F 44.6 °F 72% 30.08 in 10.0 mi NNW 9.2 mph - N/A   Clear
5:55 AM 51.8 °F 44.6 °F 76% 30.09 in 10.0 mi NNW 10.4 mph - N/A   Clear
6:15 AM 53.6 °F 46.4 °F 77% 30.09 in 10.0 mi NW 9.2 mph - N/A   Scattered Clouds
7:52 AM 55.4 °F 44.6 °F 67% 30.12 in 10.0 mi NNW 10.4 mph - N/A   Mostly Cloudy
8:55 AM 59.0 °F 44.6 °F 59% 30.12 in 10.0 mi North 4.6 mph - N/A   Mostly Cloudy
9:55 AM 62.6 °F 46.4 °F 55% 30.13 in 10.0 mi North 4.6 mph - N/A   Mostly Cloudy
10:55 AM 66.2 °F 44.6 °F 46% 30.15 in 10.0 mi North 8.1 mph - N/A   Mostly Cloudy
11:50 AM 69.8 °F 42.8 °F 38% 30.13 in 10.0 mi NE 6.9 mph - N/A   Mostly Cloudy
12:50 PM 71.6 °F 44.6 °F 38% 30.12 in 10.0 mi NNE 4.6 mph - N/A   Overcast
1:50 PM 71.6 °F 42.8 °F 35% 30.09 in 10.0 mi NNE 9.2 mph - N/A   Overcast
4:50 PM 77.0 °F 42.8 °F 29% 30.04 in 10.0 mi North 15.0 mph - N/A   Mostly Cloudy
5:50 PM 75.2 °F 42.8 °F 31% 30.03 in 10.0 mi North 9.2 mph - N/A   Scattered Clouds
6:50 PM 75.2 °F 44.6 °F 34% 30.03 in 10.0 mi WNW 4.6 mph - N/A   Partly Cloudy
7:50 PM 71.6 °F 46.4 °F 41% 30.02 in 10.0 mi Calm Calm - N/A   Partly Cloudy
8:50 PM 62.6 °F 51.8 °F 68% 30.03 in 10.0 mi Calm Calm - N/A   Partly Cloudy
9:15 PM 59.0 °F 51.8 °F 77% 30.03 in 10.0 mi Calm Calm - N/A   Clear
9:35 PM 60.8 °F 50.0 °F 68% 30.04 in 10.0 mi Calm Calm - N/A   Clear
9:55 PM 59.0 °F 50.0 °F 72% 30.04 in 10.0 mi Calm Calm - N/A   Clear
10:15 PM 57.2 °F 50.0 °F 77% 30.05 in 10.0 mi Calm Calm - N/A   Clear
10:35 PM 55.4 °F 51.8 °F 88% 30.05 in 10.0 mi West 3.5 mph - N/A   Clear
10:55 PM 53.6 °F 50.0 °F 88% 30.05 in 10.0 mi Calm Calm - N/A   Clear
11:15 PM 53.6 °F 50.0 °F 88% 30.06 in 10.0 mi Calm Calm - N/A   Clear
11:35 PM 53.6 °F 50.0 °F 88% 30.06 in 10.0 mi Calm Calm - N/A   Clear
11:55 PM 53.6 °F 50.0 °F 88% 30.06 in 10.0 mi Calm Calm - N/A   Clear